TimeMST,TemperatureF,Dew PointF,Humidity,Sea Level PressureIn,VisibilityMPH,Wind Direction,Wind SpeedMPH,Gust SpeedMPH,PrecipitationIn,Events,Conditions,WindDirDegrees,DateUTC
12:53 AM,6.1,-7.1,55,30.35,10.0,SE,3.5,-,N/A,,Clear,140,2012-12-21 07:53:00
1:53 AM,10.9,-5.1,49,30.32,10.0,Calm,Calm,-,N/A,,Clear,0,2012-12-21 08:53:00
2:53 AM,6.1,-7.1,55,30.34,10.0,Calm,Calm,-,N/A,,Clear,0,2012-12-21 09:53:00
3:53 AM,9.0,-7.1,48,30.32,10.0,Calm,Calm,-,N/A,,Clear,0,2012-12-21 10:53:00
4:53 AM,8.1,-7.1,50,30.35,10.0,Calm,Calm,-,N/A,,Clear,0,2012-12-21 11:53:00
5:53 AM,6.1,-8.0,53,30.44,10.0,NE,6.9,-,N/A,,Clear,40,2012-12-21 12:53:00
6:53 AM,7.0,-8.0,51,30.40,10.0,NE,6.9,-,N/A,,Clear,50,2012-12-21 13:53:00
7:53 AM,6.1,-8.0,53,30.40,10.0,Calm,Calm,-,N/A,,Clear,0,2012-12-21 14:53:00
8:53 AM,10.9,-7.1,44,30.40,10.0,NE,4.6,-,N/A,,Clear,40,2012-12-21 15:53:00
9:53 AM,17.1,-4.0,39,30.38,10.0,NNE,4.6,-,N/A,,Clear,20,2012-12-21 16:53:00
10:53 AM,23.0,-0.9,35,30.32,10.0,Calm,Calm,-,N/A,,Clear,0,2012-12-21 17:53:00
11:53 AM,27.0,-0.9,30,30.27,10.0,SSW,3.5,-,N/A,,Clear,200,2012-12-21 18:53:00
12:53 PM,25.0,-0.9,33,30.25,10.0,South,6.9,-,N/A,,Clear,180,2012-12-21 19:53:00
1:53 PM,27.0,1.0,33,30.20,10.0,South,4.6,-,N/A,,Clear,190,2012-12-21 20:53:00
2:53 PM,28.9,1.0,30,30.19,10.0,SSW,4.6,-,N/A,,Clear,200,2012-12-21 21:53:00
3:53 PM,28.9,3.0,33,30.18,10.0,Calm,Calm,-,N/A,,Clear,0,2012-12-21 22:53:00
4:53 PM,26.1,1.0,34,30.21,10.0,SE,3.5,-,N/A,,Clear,140,2012-12-21 23:53:00
5:53 PM,21.0,1.0,42,30.26,10.0,NE,5.8,-,N/A,,Clear,40,2012-12-22 00:53:00
6:53 PM,12.9,-0.9,54,30.32,10.0,Calm,Calm,-,N/A,,Clear,0,2012-12-22 01:53:00
7:53 PM,17.1,-0.9,45,30.29,10.0,SSE,3.5,-,N/A,,Clear,160,2012-12-22 02:53:00
8:53 PM,10.9,-2.9,54,30.29,10.0,NE,5.8,-,N/A,,Clear,50,2012-12-22 03:53:00
9:53 PM,18.0,-4.0,38,30.21,10.0,Calm,Calm,-,N/A,,Clear,0,2012-12-22 04:53:00
10:53 PM,5.0,-6.0,61,30.27,10.0,Variable,3.5,-,N/A,,Clear,0,2012-12-22 05:53:00
11:53 PM,3.9,-7.1,60,30.22,10.0,NW,3.5,-,N/A,,Clear,320,2012-12-22 06:53:00